Tracking 28790 objects as of 19-Apr-2024
HD Live streaming from Space Station
objects crossing your sky now

SL-19 DEB

Track SL-19 DEB now!
10-day predictions


NORAD ID: 36038
Int'l Code: 2009-059C
Perigee: 700.2 km
Apogee: 715.8 km
Inclination: 98.2 °
Period: 98.8 minutes
Semi major axis: 7078 km
RCS: 0.8568 m2 (medium)
Launch date: November 2, 2009
Source: Commonwealth of Independent States (former USSR) (CIS)
Launch site: PLESETSK MISSILE AND SPACE COMPLEX (PKMTR)

Note: This is SATELLITE DEBRIS
Your satellite tracking list
Your tracking list is empty




NASA's NSSDC Master Catalog

Two Line Element Set (TLE):
1 36038U 09059C   24109.96704969  .00003068  00000-0  68241-3 0  9990
2 36038  98.1695 294.5702 0011040 140.9944 345.9727 14.57632746767963
Source of the keplerian elements: AFSPC